Погода в Увате

Россия / Тюменская область     59°08′31″N   68°53′43″E
темп.,
°C
ветер,
м/с
пор.,
м/с
влажн.,
%
обл.,
%
осадки,
мм/ч
давл.,
гПа
погр.,
м
27 февраля, сб
сб2723:00−27ю229819 0.0 102919
02:00−28ю22990 0.0 102920
05:00−28ююв23990 0.0 102932
08:00−28ююв259825 0.0 102994
11:00−22ююв259350 0.0 1028257
14:00−18ююв358989 0.0 1027421
17:00−19юв369392 0.0 1027279
20:00−22юв399571 0.0 1026259
28 февраля, вс
вс2823:00−25юв389571 0.0 1026230
02:00−26юв389591 0.0 1024215
05:00−26вюв499375 0.0 1023228
08:00−25вюв489397 0.0 1021238
11:00−21вюв379398 0.0 1020274
14:00−18в4791100 0.0 1018335
17:00−19в4992100 0.0 1017378
20:00−19в4994100 0.0 1017392
1 марта, пн
пн123:00−20в3894100 0.1 1016340
02:00−20всв379699 0.0 1016280
05:00−21всв3796100 0.1 1016272
08:00−21св3696100 0.1 1016257
11:00−18св249399 0.1 1017286
14:00−15св249199 0.0 1017393
17:00−15св2494100 0.1 1017174
20:00−20всв229883 0.0 101723
2 марта, вт
вт223:00−21в129874 0.0 101820
02:00−22вюв1110065 0.0 101720
05:00−23вюв1110076 0.0 101720
08:00−23юв119987 0.0 101620
11:00−16ю128990 0.0 1015323
14:00−12ю1284100 0.0 1015542
17:00−13ю1194100 0.1 101425
20:00−17юв1298100 0.1 101425
3 марта, ср
ср323:00−19ююв229999 0.1 101420
02:00−20ююв2210078 0.0 101420
05:00−22ююв229976 0.0 101522
08:00−22ююв249843 0.0 101589
11:00−15ю259043 0.0 1015336
14:00−11ю368794 0.0 1015547
17:00−12ююв379197 0.1 1015459
20:00−15ююв31095100 0.0 1015330